Location: Bruderhein
(53.8035°N, 112.9265°W)
Time: 03:04:56
(UTC+00:00)

STRAND 1 - Pass Details

Date: 10 April 2023
Orbit: 767 x 779 km, 98.4° (Epoch: 31 May)

Event Time Altitude Azimuth Distance (km) Brightness Sun altitude
Rises 03:15:19 0° 12° (NNE) 3,253 ? -8.2°
Reaches altitude 10° 03:17:41 10° 8° (N) 2,322 ? -8.5°
Maximum altitude 03:22:36 50° 294° (WNW) 976 ? -9.1°
Drops below altitude 10° 03:27:30 10° 220° (SW) 2,307 ? -9.8°
Sets 03:29:51 0° 215° (SW) 3,231 ? -10.1°
